Location: Domachevo
(51.7500°N, 23.6000°E)
Time: 21:50:56
(UTC+03:00)

Genesis I - Visible Passes

Search period start: 20 July 2017 00:00
Search period end: 30 July 2017 00:00
Orbit: 502 x 529 km, 64.5° (Epoch: 19 July)

Date Brightness Start Highest point End Pass type
(mag) Time Alt. Az. Time Alt. Az. Time Alt. Az.
20 Jul 5.5 01:30:54 10° NNW 01:34:17 26° NNE 01:37:39 10° E visible
20 Jul 3.1 03:08:21 10° NW 03:12:20 71° SW 03:16:18 10° SSE visible
20 Jul 5.3 04:48:27 10° W 04:49:16 11° WSW 04:50:06 10° WSW visible
20 Jul 6.3 23:37:25 10° NNW 23:39:30 14° N 23:41:35 10° NE visible
21 Jul 5.4 01:15:01 10° NNW 01:18:26 26° NNE 01:21:49 10° E visible
21 Jul 3.1 02:52:29 10° NW 02:56:28 70° SW 02:59:40 15° SSE visible
21 Jul 5.3 04:32:47 10° WSW 04:33:24 10° WSW 04:34:00 10° WSW visible
21 Jul 6.2 23:21:34 10° NNW 23:23:39 14° N 23:25:44 10° NE visible
22 Jul 5.3 00:59:09 10° NNW 01:02:33 26° NNE 01:05:59 10° E visible
22 Jul 3.1 02:36:37 10° NW 02:40:36 68° SW 02:42:51 24° SSE visible
22 Jul 5.4 04:17:13 10° WSW 04:17:31 10° WSW 04:17:44 10° WSW visible
22 Jul 6.1 23:05:42 10° NNW 23:07:48 14° N 23:09:53 10° NE visible
23 Jul 5.3 00:43:17 10° NNW 00:46:42 27° NNE 00:50:08 10° E visible
23 Jul 3.2 02:20:45 10° NW 02:24:43 67° SW 02:26:20 33° SSE visible
23 Jul 6.1 22:49:50 10° NNW 22:51:56 14° N 22:54:02 10° NE visible
24 Jul 5.2 00:27:24 10° NNW 00:30:50 27° NNE 00:34:17 10° E visible
24 Jul 3.2 02:04:53 10° NW 02:08:51 66° SW 02:10:03 41° SSE visible
24 Jul 6.0 22:33:58 10° NNW 22:36:05 14° N 22:38:11 10° NE visible
25 Jul 5.1 00:11:32 10° NNW 00:14:59 27° NNE 00:18:26 10° E visible
25 Jul 3.2 01:49:01 10° NW 01:52:59 65° SW 01:53:53 48° S visible
25 Jul 6.0 22:18:06 10° NNW 22:20:13 14° N 22:22:21 10° NE visible
25 Jul 5.1 23:55:39 10° NNW 23:59:07 27° NNE 00:02:35 10° E visible
26 Jul 3.2 01:33:09 10° NW 01:37:06 64° SW 01:37:50 51° S visible
26 Jul 5.0 23:39:46 10° NNW 23:43:15 28° NNE 23:46:43 10° E visible
27 Jul 3.2 01:17:16 10° NW 01:21:14 62° SW 01:21:53 53° S visible
27 Jul 5.0 23:23:54 10° NNW 23:27:22 28° NNE 23:30:52 10° E visible
28 Jul 3.3 01:01:24 10° NW 01:05:21 61° SW 01:05:59 52° S visible
28 Jul 4.9 23:08:01 10° NNW 23:11:31 28° NNE 23:15:00 10° E visible
29 Jul 3.3 00:45:32 10° NW 00:49:28 60° SW 00:50:09 50° S visible
29 Jul 4.9 22:52:08 10° NNW 22:55:39 28° NNE 22:59:09 10° E visible
